BMCB-24 Weather Reports


time (UTC)temp
C
wind
direction
speed
KPH
gust
KPH
rain 1hr
cm
rain 24hr
cm
rain mn
cm
humidity
%
barometer
mb
20260506081055 10 0 0.0 0.0 0.03 1.57 0.05 99 1007.2
20260506073056 9 0 0.0 0.0 0.00 1.55 0.05 99 1007.2
20260506072053 9 0 0.0 0.0 0.03 1.55 0.05 98 1007.1
20260506071054 9 0 0.0 0.0 0.03 1.55 0.05 98 1007.1
20260506062055 9 0 0.0 0.0 0.03 1.55 0.05 99 1006.7
20260506061054 9 0 0.0 0.0 0.00 1.55 0.03 99 1006.7
20260506051055 9 0 0.0 0.0 0.00 1.55 0.03 98 1006.3
20260506045051 9 0 0.0 0.0 0.00 1.55 0.03 99 1006.2
20260506044053 9 0 0.0 0.0 0.00 1.55 0.03 99 1006.3
20260506043054 10 0 0.0 0.0 0.00 1.55 0.03 99 1006.3
20260506041052 9 0 0.0 0.0 0.00 1.55 0.03 99 1006.4
20260506040054 9 0 0.0 0.0 0.00 1.55 0.03 99 1006.5
20260506035058 10 0 0.0 0.0 0.00 1.55 0.03 99 1006.6
20260506034057 10 0 0.0 0.0 0.00 1.55 0.03 99 1006.7
20260506033052 10 0 0.0 0.0 0.00 1.55 0.03 99 1006.6
20260506032052 10 0 0.0 0.0 0.00 1.55 0.03 99 1006.6
20260506031055 10 0 0.0 0.0 0.00 1.55 0.03 99 1006.6
20260506030053 10 0 0.0 0.0 0.00 1.55 0.03 98 1006.7
20260506025055 10 0 0.0 0.0 0.00 1.55 0.03 99 1006.7
20260506024055 10 0 0.0 0.0 0.00 1.55 0.03 99 1006.6
20260506023055 10 0 0.0 0.0 0.00 1.55 0.03 99 1006.5
20260506022056 10 0 0.0 0.0 0.00 1.55 0.03 99 1006.6
20260506021054 10 0 0.0 0.0 0.00 1.55 0.03 99 1006.6
20260506020053 10 0 0.0 0.0 0.00 1.55 0.03 99 1006.5
20260506015054 10 0 0.0 0.0 0.00 1.55 0.03 99 1006.6
20260506014054 10 0 0.0 0.0 0.03 1.55 0.03 99 1006.6
20260506013052 10 0 0.0 0.0 0.03 1.55 0.03 98 1006.7
20260506012055 10 0 0.0 0.0 0.03 1.55 0.03 98 1006.7
20260506011055 10 0 0.0 0.0 0.03 1.55 0.03 98 1006.8
20260506010050 11 0 0.0 0.0 0.03 1.55 0.03 98 1006.8
20260506005053 11 0 0.0 0.0 0.03 1.55 0.03 99 1006.8
20260506004055 11 0 0.0 0.0 0.03 1.55 0.03 99 1006.9
20260506003052 11 0 0.0 0.0 0.00 1.52 0.00 99 1006.9
20260506002055 11 0 0.0 0.0 0.00 1.52 0.00 99 1007.0
20260506001053 11 0 0.0 0.0 0.00 1.52 0.00 99 1007.1
20260506000101 11 0 0.0 0.0 0.00 1.52 0.00 99 1007.1
20260505235101 11 0 0.0 0.0 0.00 1.52 0.00 99 1007.2
20260505234102 11 0 0.0 0.0 0.00 1.52 0.00 10 1007.2
20260505233103 11 0 0.0 0.0 0.00 1.52 0.00 10 1007.3
20260505232103 11 0 0.0 0.0 0.00 1.52 0.00 10 1007.3
20260505231104 11 0 0.0 0.0 0.00 1.52 0.00 10 1007.3
20260505230107 11 0 0.0 0.0 0.00 1.52 0.00 10 1007.4
20260505225103 11 0 0.0 0.0 0.00 1.52 0.00 10 1007.5
20260505223104 11 0 0.0 0.0 0.00 1.52 0.00 10 1007.6
20260505222107 11 0 0.0 0.0 0.00 1.52 0.00 10 1007.6
20260505221108 11 0 0.0 0.0 0.00 1.52 0.00 10 1007.6
20260505215111 11 0 0.0 0.0 0.03 1.52 1.52 10 1007.8
20260505214114 11 0 0.0 0.0 0.05 1.52 1.52 10 1007.9
20260505213111 11 0 0.0 0.0 0.05 1.52 1.52 10 1007.9
20260505212112 11 0 0.0 0.0 0.10 1.52 1.52 10 1007.9
20260505211107 11 0 0.0 0.0 0.15 1.52 1.52 10 1008.0
20260505210109 11 0 0.0 0.0 0.18 1.52 1.52 10 1008.1
20260505205108 11 0 0.0 0.0 0.25 1.52 1.52 10 1008.2
20260505204109 11 0 0.0 0.0 0.33 1.50 1.50 10 1008.2
20260505203113 11 0 0.0 0.0 0.38 1.47 1.47 10 1008.2
20260505202109 11 0 0.0 0.0 0.43 1.45 1.45 10 1008.1
20260505195108 11 0 0.0 0.0 0.41 1.35 1.35 99 1008.0
20260505194110 11 0 0.0 0.0 0.33 1.27 1.27 99 1008.0
20260505193112 11 0 0.0 0.0 0.28 1.17 1.17 99 1007.9
20260505192106 11 0 0.0 0.0 0.23 1.09 1.09 99 1007.9
20260505191109 11 0 0.0 0.0 0.20 1.07 1.04 99 1007.9
20260505190108 11 0 0.0 0.0 0.15 0.99 0.99 99 1007.9
20260505185107 11 0 0.0 0.0 0.15 0.99 0.97 98 1007.9
20260505184108 11 0 0.0 0.0 0.15 0.97 0.94 98 1007.8
20260505183103 11 0 0.0 0.0 0.15 0.97 0.94 98 1007.8
20260505181105 11 0 0.0 0.0 0.10 0.89 0.89 98 1007.9
20260505180106 11 0 0.0 0.0 0.05 0.86 0.84 98 1007.8
20260505175100 12 0 0.0 0.0 0.05 0.84 0.81 97 1007.9
20260505173106 12 0 0.0 0.0 0.00 0.79 0.79 96 1007.9
20260505172058 12 0 0.0 0.0 0.00 0.79 0.79 96 1007.9
20260505165106 12 0 0.0 0.0 0.05 0.79 0.79 94 1008.0
20260505164100 12 0 0.0 0.0 0.05 0.79 0.79 95 1008.0
20260505162100 12 0 0.0 0.0 0.08 0.79 0.79 95 1008.1
20260505161100 12 0 0.0 0.0 0.08 0.79 0.79 95 1008.2
20260505153059 12 0 0.0 0.0 0.05 0.84 0.71 94 1008.4
20260505152101 12 0 0.0 0.0 0.05 0.89 0.71 95 1008.4
20260505151058 12 0 0.0 0.0 0.05 0.91 0.71 94 1008.5
20260505140106 12 0 0.0 0.0 0.08 0.89 0.64 95 1008.8
20260505124100 12 0 0.0 0.0 0.51 0.79 0.51 95 1009.1
20260505122058 12 0 0.0 0.0 0.43 0.71 0.43 96 1009.1
20260505121056 12 0 0.0 0.0 0.43 0.71 0.43 96 1009.1
20260505120057 12 0 0.0 0.0 0.38 0.66 0.38 95 1009.1
20260505115057 12 0 0.0 0.0 0.25 0.53 0.25 93 1009.1
20260505114059 13 0 0.0 0.0 0.13 0.41 0.13 89 1009.1
20260505113058 13 0 0.0 0.0 0.00 0.28 0.00 85 1009.0
20260505112059 13 0 0.0 0.0 0.00 0.28 0.00 83 1008.9
20260505111100 14 0 0.0 0.0 0.00 0.28 0.00 81 1008.9
20260505102056 13 0 0.0 0.0 0.00 0.33 0.00 82 1009.4
20260505101058 14 0 0.0 0.0 0.00 0.33 0.00 80 1009.4
20260505100056 14 0 0.0 0.0 0.00 0.33 0.00 81 1009.4
20260505095056 14 0 0.0 0.0 0.00 0.36 0.00 82 1009.4
20260505094059 13 0 0.0 0.0 0.00 0.41 0.00 84 1009.5
20260505093056 13 0 0.0 0.0 0.00 0.43 0.00 85 1009.6
20260505092058 13 0 0.0 0.0 0.00 0.43 0.00 86 1009.6
20260505091059 13 0 0.0 0.0 0.00 0.43 0.00 86 1009.6
20260505090057 13 0 0.0 0.0 0.00 0.43 0.00 87 1009.7
20260505085058 13 0 0.0 0.0 0.00 0.43 0.00 87 1009.7
20260505084057 13 0 0.0 0.0 0.00 0.43 0.00 89 1009.8
20260505083058 13 0 0.0 0.0 0.00 0.43 0.00 88 1009.8
20260505082058 12 0 0.0 0.0 0.00 0.43 0.00 89 1009.9